Overview Statistics Trail Chart Weather Telemetry Raw packets
 

This is the latest recevied weather packets stored in our database for station/object HB9SZU-7. If no packets are shown the sender has not sent any weather packets the latest 10 day(s).

<< 1 2 3 4 >>
Time Temp. Humidity Pressure Rain* Wind** Luminosity Snow
1788607676 28.89° C 48% 941.8 hPa - - - -
1788606717 28.89° C 50% 941.7 hPa - - - -
1788605756 28.33° C 51% 941.7 hPa - - - -
1788604796 28.33° C 51% 941.6 hPa - - - -
1788603836 27.78° C 50% 941.5 hPa - - - -
1788602876 27.78° C 51% 941.5 hPa - - - -
1788601916 27.22° C 54% 941.6 hPa - - - -
1788600956 26.67° C 55% 941.5 hPa - - - -
1788599996 26.11° C 54% 941.4 hPa - - - -
1788599036 25.56° C 57% 941.2 hPa - - - -
1788598077 25° C 55% 941.2 hPa - - - -
1788597116 25° C 57% 941.2 hPa - - - -
1788596156 24.44° C 58% 941.1 hPa - - - -
1788595196 23.89° C 59% 941 hPa - - - -
1788594236 23.33° C 60% 940.8 hPa - - - -
1788593276 22.22° C 61% 940.7 hPa - - - -
1788592316 22.22° C 62% 940.8 hPa - - - -
1788591356 21.67° C 62% 940.9 hPa - - - -
1788590396 21.67° C 61% 940.8 hPa - - - -
1788589436 21.67° C 61% 940.7 hPa - - - -
1788588476 21.67° C 61% 940.6 hPa - - - -
1788587516 21.67° C 61% 940.4 hPa - - - -
1788586557 21.67° C 62% 940.4 hPa - - - -
1788585596 21.11° C 61% 940.4 hPa - - - -
1788584636 21.11° C 61% 940.1 hPa - - - -

* Rain since midnight (hover to see other rain measurements)
** Current wind speed in m/s (hover to see current wind gust speed)